Time,TemperatureF,DewpointF,PressureIn,WindDirection,WindDirectionDegrees,WindSpeedMPH,WindSpeedGustMPH,Humidity,HourlyPrecipIn,Conditions,Clouds,dailyrainin,SoftwareType,DateUTC
2013-06-02 00:00:00,74.0,66.0,29.96,ESE,123,0.0,0.0,76,0.00,,FEW090,0.00,VWS V14.01,2013-06-02 04:00:00,
2013-06-02 00:01:00,74.0,66.0,29.96,ESE,123,0.0,0.0,76,0.00,,FEW090,0.00,VWS V14.01,2013-06-02 04:01:00,
2013-06-02 00:06:00,74.6,66.2,29.96,ESE,123,0.0,0.0,75,0.00,,FEW090,0.00,VWS V14.01,2013-06-02 04:06:00,
2013-06-02 00:11:00,74.9,66.1,29.96,ESE,123,0.0,0.0,74,0.00,,FEW090,0.00,VWS V14.01,2013-06-02 04:11:00,
2013-06-02 00:16:00,74.9,65.7,29.96,ESE,123,0.0,0.0,73,0.00,,FEW090,0.00,VWS V14.01,2013-06-02 04:16:00,
2013-06-02 00:21:00,75.1,65.9,29.96,ESE,123,0.0,0.0,73,0.00,,FEW090,0.00,VWS V14.01,2013-06-02 04:21:00,
2013-06-02 00:26:00,75.1,65.9,29.96,ESE,123,0.0,0.0,73,0.00,,FEW090,0.00,VWS V14.01,2013-06-02 04:26:00,
2013-06-02 00:31:00,74.9,66.1,29.96,ESE,123,0.0,0.0,74,0.00,,FEW090,0.00,VWS V14.01,2013-06-02 04:31:00,
2013-06-02 00:36:00,74.9,65.7,29.96,ESE,123,0.0,0.0,73,0.00,,FEW090,0.00,VWS V14.01,2013-06-02 04:36:00,
2013-06-02 00:41:00,74.9,65.7,29.96,ESE,123,0.0,0.0,73,0.00,,FEW090,0.00,VWS V14.01,2013-06-02 04:41:00,
2013-06-02 00:46:00,74.9,65.7,29.96,ESE,123,0.0,0.0,73,0.00,,OVC060,0.00,VWS V14.01,2013-06-02 04:46:00,
2013-06-02 00:51:00,74.9,65.7,29.96,ESE,123,0.0,0.0,73,0.00,,OVC060,0.00,VWS V14.01,2013-06-02 04:51:00,
2013-06-02 00:56:00,74.9,65.7,29.96,ESE,123,0.0,0.0,73,0.00,,OVC060,0.00,VWS V14.01,2013-06-02 04:56:00,
2013-06-02 01:01:00,74.7,65.1,29.94,ESE,123,0.0,0.0,72,0.00,,OVC060,0.00,VWS V14.01,2013-06-02 05:01:00,
2013-06-02 01:06:00,74.7,65.1,29.94,ESE,123,0.0,0.0,72,0.00,,OVC060,0.00,VWS V14.01,2013-06-02 05:06:00,
2013-06-02 01:11:00,74.6,65.0,29.94,ESE,123,0.0,0.0,72,0.00,,OVC060,0.00,VWS V14.01,2013-06-02 05:11:00,
2013-06-02 01:16:00,74.6,65.4,29.92,ESE,123,0.0,0.0,73,0.00,,OVC060,0.00,VWS V14.01,2013-06-02 05:16:00,
2013-06-02 01:21:00,74.2,65.0,29.92,ESE,123,0.0,0.0,73,0.00,,OVC060,0.00,VWS V14.01,2013-06-02 05:21:00,
2013-06-02 01:26:00,74.0,65.2,29.92,ESE,123,0.0,0.0,74,0.00,,OVC060,0.00,VWS V14.01,2013-06-02 05:26:00,
2013-06-02 01:31:00,73.9,65.1,29.91,ESE,123,0.0,0.0,74,0.00,,OVC060,0.00,VWS V14.01,2013-06-02 05:31:00,
2013-06-02 01:36:00,73.9,64.7,29.91,ESE,123,0.0,0.0,73,0.00,,OVC060,0.00,VWS V14.01,2013-06-02 05:36:00,
2013-06-02 01:41:00,73.9,64.7,29.91,ESE,123,0.0,0.0,73,0.00,,OVC060,0.00,VWS V14.01,2013-06-02 05:41:00,
2013-06-02 01:46:00,73.7,64.9,29.91,ESE,123,0.0,0.0,74,0.00,,OVC060,0.00,VWS V14.01,2013-06-02 05:46:00,
2013-06-02 01:51:00,73.3,64.9,29.91,ESE,123,0.0,0.0,75,0.00,,OVC060,0.00,VWS V14.01,2013-06-02 05:51:00,
2013-06-02 01:56:00,73.2,65.2,29.91,ESE,123,0.0,0.0,76,0.00,,OVC060,0.00,VWS V14.01,2013-06-02 05:56:00,
2013-06-02 02:01:00,73.0,65.0,29.92,ESE,123,0.0,0.0,76,0.00,,OVC060,0.00,VWS V14.01,2013-06-02 06:01:00,
2013-06-02 02:06:00,72.8,64.8,29.92,ESE,123,0.0,0.0,76,0.00,,OVC060,0.00,VWS V14.01,2013-06-02 06:06:00,
2013-06-02 02:11:00,72.8,64.8,29.92,ESE,123,0.0,0.0,76,0.00,,OVC060,0.00,VWS V14.01,2013-06-02 06:11:00,
2013-06-02 02:16:00,72.7,64.7,29.92,ESE,123,0.0,0.0,76,0.00,,OVC060,0.00,VWS V14.01,2013-06-02 06:16:00,
2013-06-02 02:21:00,72.5,64.9,29.92,ESE,123,0.0,0.0,77,0.00,,OVC060,0.00,VWS V14.01,2013-06-02 06:21:00,
2013-06-02 02:26:00,72.3,64.7,29.92,ESE,123,0.0,0.0,77,0.00,,OVC060,0.00,VWS V14.01,2013-06-02 06:26:00,
2013-06-02 02:31:00,72.3,64.7,29.93,ESE,123,0.0,0.0,77,0.00,,OVC060,0.00,VWS V14.01,2013-06-02 06:31:00,
2013-06-02 02:36:00,72.1,64.5,29.93,ESE,123,0.0,0.0,77,0.00,,OVC060,0.00,VWS V14.01,2013-06-02 06:36:00,
2013-06-02 02:41:00,72.1,64.5,29.93,ESE,123,0.0,0.0,77,0.00,,OVC060,0.00,VWS V14.01,2013-06-02 06:41:00,
2013-06-02 02:46:00,72.1,64.9,29.93,ESE,123,0.0,0.0,78,0.00,,FEW060,0.00,VWS V14.01,2013-06-02 06:46:00,
2013-06-02 02:51:00,72.1,64.9,29.93,ESE,123,0.0,0.0,78,0.00,,FEW060,0.00,VWS V14.01,2013-06-02 06:51:00,
2013-06-02 02:56:00,72.1,64.9,29.93,ESE,123,0.0,0.0,78,0.00,,FEW060,0.00,VWS V14.01,2013-06-02 06:56:00,
2013-06-02 03:01:00,72.1,64.9,29.93,ESE,123,0.0,0.0,78,0.00,,FEW060,0.00,VWS V14.01,2013-06-02 07:01:00,
2013-06-02 03:06:00,72.0,64.8,29.93,ESE,123,0.0,0.0,78,0.00,,FEW060,0.00,VWS V14.01,2013-06-02 07:06:00,
2013-06-02 03:11:00,72.0,64.8,29.93,ESE,123,0.0,0.0,78,0.00,,FEW060,0.00,VWS V14.01,2013-06-02 07:11:00,
2013-06-02 03:16:00,72.0,64.8,29.93,ESE,123,0.0,0.0,78,0.00,,FEW060,0.00,VWS V14.01,2013-06-02 07:16:00,
2013-06-02 03:21:00,71.8,64.9,29.93,ESE,123,0.0,0.0,79,0.00,,FEW060,0.00,VWS V14.01,2013-06-02 07:21:00,
2013-06-02 03:26:00,71.8,64.9,29.93,ESE,123,0.0,0.0,79,0.00,,FEW060,0.00,VWS V14.01,2013-06-02 07:26:00,
2013-06-02 03:31:00,71.8,64.9,29.93,ESE,123,0.0,0.0,79,0.00,,FEW060,0.00,VWS V14.01,2013-06-02 07:31:00,
2013-06-02 03:36:00,71.8,64.9,29.93,ESE,123,0.0,0.0,79,0.00,,FEW060,0.00,VWS V14.01,2013-06-02 07:36:00,
2013-06-02 03:41:00,71.8,64.9,29.93,ESE,123,0.0,0.0,79,0.00,,FEW060,0.00,VWS V14.01,2013-06-02 07:41:00,
2013-06-02 03:46:00,71.8,64.9,29.93,ESE,123,0.0,0.0,79,0.00,,OVC060,0.00,VWS V14.01,2013-06-02 07:46:00,
2013-06-02 03:51:00,71.8,64.9,29.93,ESE,123,0.0,0.0,79,0.00,,OVC060,0.00,VWS V14.01,2013-06-02 07:51:00,
2013-06-02 03:56:00,71.6,64.8,29.93,ESE,123,0.0,0.0,79,0.00,,OVC060,0.00,VWS V14.01,2013-06-02 07:56:00,
2013-06-02 04:01:00,71.6,64.8,29.93,ESE,123,0.0,0.0,79,0.00,,OVC060,0.00,VWS V14.01,2013-06-02 08:01:00,
2013-06-02 04:06:00,71.6,64.8,29.93,ESE,123,0.0,0.0,79,0.00,,OVC060,0.00,VWS V14.01,2013-06-02 08:06:00,
2013-06-02 04:11:00,71.5,64.7,29.93,ESE,123,0.0,0.0,79,0.00,,OVC060,0.00,VWS V14.01,2013-06-02 08:11:00,
2013-06-02 04:16:00,71.5,65.0,29.92,ESE,123,0.0,0.0,80,0.00,,OVC060,0.00,VWS V14.01,2013-06-02 08:16:00,
2013-06-02 04:21:00,71.5,64.7,29.92,ESE,123,0.0,0.0,79,0.00,,OVC060,0.00,VWS V14.01,2013-06-02 08:21:00,
2013-06-02 04:26:00,71.3,64.5,29.92,ESE,123,0.0,0.0,79,0.00,,OVC060,0.00,VWS V14.01,2013-06-02 08:26:00,
2013-06-02 04:31:00,71.3,64.5,29.92,ESE,123,0.0,0.0,79,0.00,,OVC060,0.00,VWS V14.01,2013-06-02 08:31:00,
2013-06-02 04:36:00,71.1,64.6,29.92,ESE,123,0.0,0.0,80,0.00,,OVC060,0.00,VWS V14.01,2013-06-02 08:36:00,
2013-06-02 04:41:00,70.9,64.4,29.92,ESE,123,0.0,0.0,80,0.00,,OVC060,0.00,VWS V14.01,2013-06-02 08:41:00,
2013-06-02 04:46:00,70.9,64.8,29.91,ESE,123,0.0,0.0,81,0.00,,OVC070,0.00,VWS V14.01,2013-06-02 08:46:00,
2013-06-02 04:51:00,70.8,64.7,29.91,ESE,123,0.0,0.0,81,0.00,,OVC070,0.00,VWS V14.01,2013-06-02 08:51:00,
2013-06-02 04:56:00,70.6,64.5,29.91,ESE,123,0.0,0.0,81,0.00,,OVC070,0.00,VWS V14.01,2013-06-02 08:56:00,
2013-06-02 05:01:00,70.6,64.8,29.90,ESE,123,0.0,0.0,82,0.00,,OVC070,0.00,VWS V14.01,2013-06-02 09:01:00,
2013-06-02 05:06:00,70.4,64.7,29.90,ESE,123,0.0,0.0,82,0.00,,OVC070,0.00,VWS V14.01,2013-06-02 09:06:00,
2013-06-02 05:11:00,70.4,64.7,29.90,ESE,123,0.0,0.0,82,0.00,,OVC070,0.00,VWS V14.01,2013-06-02 09:11:00,
2013-06-02 05:16:00,70.4,64.7,29.92,ESE,123,0.0,0.0,82,0.00,,OVC070,0.00,VWS V14.01,2013-06-02 09:16:00,
2013-06-02 05:21:00,70.4,64.7,29.92,ESE,123,0.0,0.0,82,0.00,,OVC070,0.00,VWS V14.01,2013-06-02 09:21:00,
2013-06-02 05:26:00,70.4,64.7,29.92,ESE,123,0.0,0.0,82,0.00,,OVC070,0.00,VWS V14.01,2013-06-02 09:26:00,
2013-06-02 05:31:00,70.4,64.7,29.91,ESE,123,0.0,0.0,82,0.00,,OVC070,0.00,VWS V14.01,2013-06-02 09:31:00,
2013-06-02 05:36:00,70.4,64.7,29.91,ESE,123,0.0,0.0,82,0.00,,OVC070,0.00,VWS V14.01,2013-06-02 09:36:00,
2013-06-02 05:41:00,70.4,65.0,29.91,ESE,123,0.0,0.0,83,0.00,,OVC070,0.00,VWS V14.01,2013-06-02 09:41:00,
2013-06-02 05:46:00,70.4,65.0,29.91,ESE,123,0.0,0.0,83,0.00,,OVC090,0.00,VWS V14.01,2013-06-02 09:46:00,
2013-06-02 05:51:00,70.3,64.9,29.91,ESE,123,0.0,0.0,83,0.00,,OVC090,0.00,VWS V14.01,2013-06-02 09:51:00,
2013-06-02 05:56:00,70.3,65.2,29.91,ESE,123,0.0,0.0,84,0.00,,OVC090,0.00,VWS V14.01,2013-06-02 09:56:00,
2013-06-02 06:00:00,70.3,65.2,29.92,ESE,123,0.0,0.0,84,0.00,,OVC090,0.00,VWS V14.01,2013-06-02 10:00:00,
2013-06-02 06:05:00,70.3,65.2,29.92,ESE,123,0.0,0.0,84,0.00,,OVC090,0.00,VWS V14.01,2013-06-02 10:05:00,
2013-06-02 06:10:00,70.3,65.6,29.92,ESE,123,0.0,0.0,85,0.00,,OVC090,0.00,VWS V14.01,2013-06-02 10:10:00,
2013-06-02 06:15:00,70.3,65.6,29.92,ESE,123,0.0,0.0,85,0.00,,OVC090,0.00,VWS V14.01,2013-06-02 10:15:00,
2013-06-02 06:20:00,70.3,65.6,29.92,ESE,123,0.0,0.0,85,0.00,,OVC090,0.00,VWS V14.01,2013-06-02 10:20:00,
2013-06-02 06:25:00,70.1,65.4,29.92,ESE,123,0.0,0.0,85,0.00,,OVC090,0.00,VWS V14.01,2013-06-02 10:25:00,
2013-06-02 06:30:00,70.1,65.4,29.92,ESE,123,0.0,0.0,85,0.00,,OVC090,0.00,VWS V14.01,2013-06-02 10:30:00,
2013-06-02 06:35:00,70.1,65.4,29.92,ESE,123,0.0,0.0,85,0.00,,OVC090,0.00,VWS V14.01,2013-06-02 10:35:00,
2013-06-02 06:40:00,70.1,65.4,29.92,ESE,123,0.0,0.0,85,0.00,,OVC090,0.00,VWS V14.01,2013-06-02 10:40:00,
2013-06-02 06:45:00,70.1,65.7,29.93,ESE,123,0.0,0.0,86,0.00,,OVC070,0.00,VWS V14.01,2013-06-02 10:45:00,
2013-06-02 06:50:00,70.1,65.7,29.93,ESE,123,0.0,0.0,86,0.00,,OVC070,0.00,VWS V14.01,2013-06-02 10:50:00,
2013-06-02 06:55:00,70.3,65.9,29.93,ESE,123,0.0,0.0,86,0.00,,OVC070,0.00,VWS V14.01,2013-06-02 10:55:00,
2013-06-02 07:00:00,70.3,65.9,29.93,ESE,123,0.0,0.0,86,0.00,,OVC070,0.00,VWS V14.01,2013-06-02 11:00:00,
2013-06-02 07:05:00,70.3,65.9,29.93,ESE,123,0.0,0.0,86,0.00,,OVC070,0.00,VWS V14.01,2013-06-02 11:05:00,
2013-06-02 07:10:00,70.3,65.9,29.93,ESE,123,0.0,0.0,86,0.00,,OVC070,0.00,VWS V14.01,2013-06-02 11:10:00,
2013-06-02 07:15:00,70.3,65.9,29.93,ESE,123,0.0,0.0,86,0.00,,OVC070,0.00,VWS V14.01,2013-06-02 11:15:00,
2013-06-02 07:20:00,70.4,66.3,29.93,ESE,123,0.0,0.0,87,0.00,,OVC070,0.00,VWS V14.01,2013-06-02 11:20:00,
2013-06-02 07:25:00,70.4,66.0,29.93,ESE,123,0.0,0.0,86,0.00,,OVC070,0.00,VWS V14.01,2013-06-02 11:25:00,
2013-06-02 07:30:00,70.6,66.6,29.93,ESE,123,0.0,0.0,87,0.00,,OVC070,0.00,VWS V14.01,2013-06-02 11:30:00,
2013-06-02 07:35:00,70.6,66.6,29.93,ESE,123,0.0,0.0,87,0.00,,OVC070,0.00,VWS V14.01,2013-06-02 11:35:00,
2013-06-02 07:40:00,70.6,66.6,29.93,ESE,123,0.0,0.0,87,0.00,,OVC070,0.00,VWS V14.01,2013-06-02 11:40:00,
2013-06-02 07:45:00,70.6,66.6,29.93,ESE,123,0.0,0.0,87,0.00,,OVC080,0.00,VWS V14.01,2013-06-02 11:45:00,
2013-06-02 07:50:00,70.8,66.7,29.93,ESE,123,0.0,0.0,87,0.00,,OVC080,0.00,VWS V14.01,2013-06-02 11:50:00,
2013-06-02 07:55:00,70.8,66.7,29.93,ESE,123,0.0,0.0,87,0.00,,OVC080,0.00,VWS V14.01,2013-06-02 11:55:00,
2013-06-02 08:00:00,70.8,66.7,29.93,ESE,123,0.0,0.0,87,0.00,,OVC080,0.00,VWS V14.01,2013-06-02 12:00:00,
2013-06-02 08:05:00,70.9,66.8,29.93,ESE,123,0.0,0.0,87,0.00,,OVC080,0.00,VWS V14.01,2013-06-02 12:05:00,
2013-06-02 08:10:00,70.9,66.8,29.93,ESE,123,0.0,0.0,87,0.00,,OVC080,0.00,VWS V14.01,2013-06-02 12:10:00,
2013-06-02 08:15:00,70.9,66.8,29.93,ESE,123,0.0,0.0,87,0.00,,OVC080,0.00,VWS V14.01,2013-06-02 12:15:00,
2013-06-02 08:20:00,71.1,67.0,29.93,ESE,123,0.0,0.0,87,0.00,,OVC080,0.00,VWS V14.01,2013-06-02 12:20:00,
2013-06-02 08:25:00,71.1,67.0,29.93,ESE,123,0.0,0.0,87,0.00,,OVC080,0.00,VWS V14.01,2013-06-02 12:25:00,
2013-06-02 08:30:00,71.1,67.0,29.93,ESE,123,0.0,0.0,87,0.00,,OVC080,0.00,VWS V14.01,2013-06-02 12:30:00,
2013-06-02 08:35:00,71.1,67.0,29.93,ESE,123,0.0,0.0,87,0.00,,OVC080,0.00,VWS V14.01,2013-06-02 12:35:00,
2013-06-02 08:40:00,71.1,67.0,29.93,ESE,123,0.0,0.0,87,0.00,,OVC080,0.00,VWS V14.01,2013-06-02 12:40:00,
2013-06-02 08:45:00,71.1,67.0,29.93,ESE,123,0.0,0.0,87,0.00,,OVC080,0.00,VWS V14.01,2013-06-02 12:45:00,
2013-06-02 08:50:00,71.1,67.4,29.93,ESE,123,0.0,0.0,88,0.00,,OVC080,0.00,VWS V14.01,2013-06-02 12:50:00,
2013-06-02 08:55:00,71.1,67.4,29.93,ESE,123,0.0,0.0,88,0.00,,OVC080,0.00,VWS V14.01,2013-06-02 12:55:00,
2013-06-02 09:00:00,71.1,67.0,29.92,ESE,123,0.0,0.0,87,0.00,,OVC015,0.00,VWS V14.01,2013-06-02 13:00:00,
2013-06-02 09:05:00,71.3,67.2,29.92,ESE,123,0.0,0.0,87,0.00,,OVC015,0.00,VWS V14.01,2013-06-02 13:05:00,
2013-06-02 09:10:00,71.5,67.8,29.92,ESE,123,0.0,0.0,88,0.00,,OVC015,0.00,VWS V14.01,2013-06-02 13:10:00,
2013-06-02 09:15:00,71.6,67.5,29.92,ESE,123,0.0,0.0,87,0.00,,OVC015,0.00,VWS V14.01,2013-06-02 13:15:00,
2013-06-02 09:20:00,71.8,67.7,29.92,ESE,123,0.0,0.0,87,0.00,,OVC015,0.00,VWS V14.01,2013-06-02 13:20:00,
2013-06-02 09:25:00,71.8,67.4,29.92,SSW,194,0.0,2.0,86,0.00,,OVC015,0.00,VWS V14.01,2013-06-02 13:25:00,
2013-06-02 09:30:00,71.8,67.4,29.92,SSW,194,0.0,1.0,86,0.00,,OVC015,0.00,VWS V14.01,2013-06-02 13:30:00,
2013-06-02 09:35:00,72.0,67.9,29.92,SSE,163,0.0,0.0,87,0.00,,OVC015,0.00,VWS V14.01,2013-06-02 13:35:00,
2013-06-02 09:40:00,72.0,67.6,29.92,SSE,163,0.0,0.0,86,0.00,,OVC015,0.00,VWS V14.01,2013-06-02 13:40:00,
2013-06-02 09:45:00,72.0,67.6,29.92,SSE,163,0.0,1.0,86,0.00,,OVC020,0.00,VWS V14.01,2013-06-02 13:45:00,
2013-06-02 09:50:00,72.1,68.0,29.92,SSE,163,0.0,0.0,87,0.00,,OVC020,0.00,VWS V14.01,2013-06-02 13:50:00,
2013-06-02 09:55:00,72.1,67.7,29.92,SSE,163,1.0,1.0,86,0.00,,OVC020,0.00,VWS V14.01,2013-06-02 13:55:00,
2013-06-02 10:00:00,72.3,67.9,29.92,SSE,158,0.0,0.0,86,0.00,,OVC020,0.00,VWS V14.01,2013-06-02 14:00:00,
2013-06-02 10:05:00,72.5,68.1,29.92,SSE,168,0.0,0.0,86,0.00,,OVC020,0.00,VWS V14.01,2013-06-02 14:05:00,
2013-06-02 10:10:00,72.5,68.1,29.92,SSW,196,0.0,1.0,86,0.00,,OVC020,0.00,VWS V14.01,2013-06-02 14:10:00,
2013-06-02 10:15:00,72.7,68.3,29.92,SSW,196,0.0,0.0,86,0.00,,OVC020,0.00,VWS V14.01,2013-06-02 14:15:00,
2013-06-02 10:20:00,72.7,68.3,29.92,SSW,196,0.0,0.0,86,0.00,,OVC020,0.00,VWS V14.01,2013-06-02 14:20:00,
2013-06-02 10:25:00,72.7,67.9,29.92,SSW,196,0.0,0.0,85,0.00,,OVC020,0.00,VWS V14.01,2013-06-02 14:25:00,
2013-06-02 10:30:00,72.8,68.0,29.92,SSW,196,0.0,0.0,85,0.00,,OVC020,0.00,VWS V14.01,2013-06-02 14:30:00,
2013-06-02 10:35:00,73.0,68.2,29.92,WNW,284,0.0,3.0,85,0.00,,OVC020,0.00,VWS V14.01,2013-06-02 14:35:00,
2013-06-02 10:40:00,73.2,68.4,29.92,WNW,284,0.0,2.0,85,0.00,,OVC020,0.00,VWS V14.01,2013-06-02 14:40:00,
2013-06-02 10:45:00,73.5,68.7,29.92,West,275,0.0,0.0,85,0.00,,OVC017,0.00,VWS V14.01,2013-06-02 14:45:00,
2013-06-02 10:50:00,73.7,68.6,29.92,SSW,205,0.0,0.0,84,0.00,,OVC017,0.00,VWS V14.01,2013-06-02 14:50:00,
2013-06-02 10:55:00,73.9,68.8,29.92,SSW,205,0.0,0.0,84,0.00,,OVC017,0.00,VWS V14.01,2013-06-02 14:55:00,
2013-06-02 11:00:00,73.9,68.4,29.91,SSW,205,0.0,1.0,83,0.00,,OVC017,0.00,VWS V14.01,2013-06-02 15:00:00,
2013-06-02 11:05:00,74.0,68.9,29.91,SSW,205,0.0,0.0,84,0.00,,OVC017,0.00,VWS V14.01,2013-06-02 15:05:00,
2013-06-02 11:10:00,74.4,68.9,29.91,SSW,205,0.0,0.0,83,0.00,,OVC017,0.00,VWS V14.01,2013-06-02 15:10:00,
2013-06-02 11:15:00,74.6,69.1,29.91,WSW,257,0.0,1.0,83,0.00,,OVC017,0.00,VWS V14.01,2013-06-02 15:15:00,
2013-06-02 11:20:00,74.7,68.8,29.91,WSW,257,0.0,0.0,82,0.00,,OVC017,0.00,VWS V14.01,2013-06-02 15:20:00,
2013-06-02 11:25:00,74.9,69.0,29.91,WSW,257,0.0,1.0,82,0.00,,OVC017,0.00,VWS V14.01,2013-06-02 15:25:00,
2013-06-02 11:30:00,75.1,69.2,29.91,WSW,255,1.0,3.0,82,0.00,,OVC017,0.00,VWS V14.01,2013-06-02 15:30:00,
2013-06-02 11:35:00,75.3,69.4,29.91,WSW,248,0.0,0.0,82,0.00,,OVC017,0.00,VWS V14.01,2013-06-02 15:35:00,
2013-06-02 11:40:00,75.4,69.5,29.91,WSW,248,0.0,0.0,82,0.00,,OVC017,0.00,VWS V14.01,2013-06-02 15:40:00,
2013-06-02 11:45:00,75.4,69.5,29.91,WSW,248,0.0,0.0,82,0.00,,OVC017,0.00,VWS V14.01,2013-06-02 15:45:00,
2013-06-02 11:50:00,75.4,69.2,29.91,WSW,248,0.0,0.0,81,0.00,,OVC017,0.00,VWS V14.01,2013-06-02 15:50:00,
2013-06-02 11:55:00,75.4,69.2,29.91,WSW,248,0.0,0.0,81,0.00,,OVC017,0.00,VWS V14.01,2013-06-02 15:55:00,
2013-06-02 12:00:00,75.4,69.2,29.90,West,265,0.0,2.0,81,0.00,,OVC017,0.00,VWS V14.01,2013-06-02 16:00:00,
2013-06-02 12:05:00,75.6,69.7,29.90,SSW,195,0.0,0.0,82,0.00,,OVC017,0.00,VWS V14.01,2013-06-02 16:05:00,
2013-06-02 12:10:00,75.6,69.4,29.90,SSW,195,0.0,0.0,81,0.00,,OVC017,0.00,VWS V14.01,2013-06-02 16:10:00,
2013-06-02 12:15:00,75.6,69.7,29.89,SSW,195,0.0,1.0,82,0.00,,OVC017,0.00,VWS V14.01,2013-06-02 16:15:00,
2013-06-02 12:20:00,75.8,69.2,29.89,SSW,195,0.0,0.0,80,0.00,,OVC017,0.00,VWS V14.01,2013-06-02 16:20:00,
2013-06-02 12:25:00,75.6,69.7,29.89,SSW,195,0.0,0.0,82,0.00,,OVC017,0.00,VWS V14.01,2013-06-02 16:25:00,
2013-06-02 12:30:00,75.6,70.4,29.90,SSW,195,0.0,0.0,84,0.03,,OVC017,0.03,VWS V14.01,2013-06-02 16:30:00,
2013-06-02 12:35:00,75.1,70.3,29.90,SSW,195,0.0,0.0,85,0.10,,OVC017,0.10,VWS V14.01,2013-06-02 16:35:00,
2013-06-02 12:40:00,74.7,70.9,29.90,SSW,195,0.0,0.0,88,0.17,,OVC017,0.17,VWS V14.01,2013-06-02 16:40:00,
2013-06-02 12:45:00,74.0,70.6,29.91,SSW,195,0.0,0.0,89,0.23,,OVC017,0.23,VWS V14.01,2013-06-02 16:45:00,
2013-06-02 12:50:00,73.5,70.4,29.91,SSW,195,0.0,0.0,90,0.29,,OVC017,0.29,VWS V14.01,2013-06-02 16:50:00,
2013-06-02 12:55:00,73.2,70.4,29.91,SSW,195,0.0,0.0,91,0.33,,OVC017,0.33,VWS V14.01,2013-06-02 16:55:00,
2013-06-02 13:00:00,72.8,70.3,29.91,SSW,195,0.0,0.0,92,0.34,,OVC017,0.34,VWS V14.01,2013-06-02 17:00:00,
2013-06-02 13:05:00,72.7,70.2,29.91,SSW,195,0.0,0.0,92,0.35,,OVC017,0.35,VWS V14.01,2013-06-02 17:05:00,
2013-06-02 13:10:00,72.5,70.4,29.91,SSW,195,0.0,0.0,93,0.35,,OVC017,0.35,VWS V14.01,2013-06-02 17:10:00,
2013-06-02 13:15:00,72.5,70.7,29.90,SSW,195,0.0,0.0,94,0.35,,OVC017,0.35,VWS V14.01,2013-06-02 17:15:00,
2013-06-02 13:20:00,72.3,70.8,29.90,SSW,195,0.0,0.0,95,0.35,,OVC017,0.35,VWS V14.01,2013-06-02 17:20:00,
2013-06-02 13:25:00,72.7,71.8,29.90,SSW,195,0.0,0.0,97,0.35,,OVC017,0.35,VWS V14.01,2013-06-02 17:25:00,
2013-06-02 13:30:00,73.0,72.4,29.89,SSW,195,0.0,0.0,98,0.35,,OVC017,0.35,VWS V14.01,2013-06-02 17:30:00,
2013-06-02 13:35:00,73.0,72.4,29.89,SSW,195,0.0,0.0,98,0.32,,OVC017,0.35,VWS V14.01,2013-06-02 17:35:00,
2013-06-02 13:40:00,72.8,71.9,29.89,SSW,195,0.0,0.0,97,0.24,,OVC017,0.35,VWS V14.01,2013-06-02 17:40:00,
2013-06-02 13:45:00,72.8,72.2,29.90,SSW,195,0.0,0.0,98,0.18,,OVC019,0.35,VWS V14.01,2013-06-02 17:45:00,
2013-06-02 13:50:00,72.7,71.8,29.90,SSW,195,0.0,0.0,97,0.18,,OVC019,0.41,VWS V14.01,2013-06-02 17:50:00,
2013-06-02 13:55:00,72.5,71.9,29.90,SSW,195,0.0,0.0,98,0.17,,OVC019,0.46,VWS V14.01,2013-06-02 17:55:00,
2013-06-02 14:00:00,72.5,72.2,29.88,SSW,195,0.0,0.0,99,0.13,,OVC032,0.47,VWS V14.01,2013-06-02 18:00:00,
2013-06-02 14:05:00,72.3,71.7,29.88,SSW,195,0.0,0.0,98,0.12,,OVC032,0.47,VWS V14.01,2013-06-02 18:05:00,
2013-06-02 14:10:00,72.1,71.5,29.88,SSW,195,0.0,0.0,98,0.12,,OVC032,0.47,VWS V14.01,2013-06-02 18:10:00,
2013-06-02 14:15:00,72.1,71.8,29.89,SSW,195,0.0,0.0,99,0.12,,OVC032,0.47,VWS V14.01,2013-06-02 18:15:00,
2013-06-02 14:20:00,72.1,71.8,29.89,SSW,195,0.0,0.0,99,0.12,,OVC032,0.47,VWS V14.01,2013-06-02 18:20:00,
2013-06-02 14:25:00,72.1,71.8,29.89,SSW,195,0.0,0.0,99,0.12,,OVC032,0.47,VWS V14.01,2013-06-02 18:25:00,
2013-06-02 14:30:00,72.1,71.8,29.88,SSW,195,0.0,0.0,99,0.16,,OVC032,0.51,VWS V14.01,2013-06-02 18:30:00,
2013-06-02 14:35:00,72.1,71.8,29.88,SSW,195,0.0,0.0,99,0.17,,OVC032,0.52,VWS V14.01,2013-06-02 18:35:00,
2013-06-02 14:40:00,72.1,71.8,29.88,SSW,195,0.0,0.0,99,0.17,,OVC032,0.52,VWS V14.01,2013-06-02 18:40:00,
2013-06-02 14:45:00,72.0,72.0,29.88,SSW,195,0.0,0.0,100,0.18,,OVC100,0.53,VWS V14.01,2013-06-02 18:45:00,
2013-06-02 14:50:00,71.8,71.8,29.88,SSW,195,0.0,0.0,100,0.18,,OVC100,0.53,VWS V14.01,2013-06-02 18:50:00,
2013-06-02 14:55:00,71.6,71.3,29.88,SSW,195,0.0,0.0,99,0.15,,OVC100,0.56,VWS V14.01,2013-06-02 18:55:00,
2013-06-02 15:00:00,71.3,71.0,29.88,SSW,195,0.0,0.0,99,0.12,,OVC100,0.58,VWS V14.01,2013-06-02 19:00:00,
2013-06-02 15:05:00,71.1,71.1,29.88,SSW,195,0.0,0.0,100,0.13,,OVC100,0.60,VWS V14.01,2013-06-02 19:05:00,
2013-06-02 15:10:00,70.8,70.5,29.88,SSW,195,0.0,0.0,99,0.13,,OVC100,0.60,VWS V14.01,2013-06-02 19:10:00,
2013-06-02 15:15:00,70.6,70.6,29.86,SSW,195,0.0,0.0,100,0.13,,OVC100,0.60,VWS V14.01,2013-06-02 19:15:00,
2013-06-02 15:20:00,70.9,70.9,29.86,SSW,195,0.0,0.0,100,0.13,,OVC100,0.60,VWS V14.01,2013-06-02 19:20:00,
2013-06-02 15:25:00,70.9,70.9,29.86,SSW,195,0.0,0.0,100,0.13,,OVC100,0.60,VWS V14.01,2013-06-02 19:25:00,
2013-06-02 15:30:00,70.9,70.9,29.85,SSW,195,0.0,0.0,100,0.13,,OVC100,0.60,VWS V14.01,2013-06-02 19:30:00,
2013-06-02 15:35:00,70.8,70.8,29.85,SSW,195,0.0,0.0,100,0.08,,OVC100,0.60,VWS V14.01,2013-06-02 19:35:00,
2013-06-02 15:40:00,70.9,70.9,29.85,SSW,195,0.0,0.0,100,0.08,,OVC100,0.60,VWS V14.01,2013-06-02 19:40:00,
2013-06-02 15:45:00,70.9,70.9,29.85,SSW,195,0.0,0.0,100,0.08,,-RA,0.60,VWS V14.01,2013-06-02 19:45:00,
2013-06-02 15:50:00,71.1,71.1,29.85,SSW,195,0.0,0.0,100,0.07,,-RA,0.60,VWS V14.01,2013-06-02 19:50:00,
2013-06-02 15:55:00,71.1,71.1,29.85,SSW,195,0.0,0.0,100,0.07,,-RA,0.60,VWS V14.01,2013-06-02 19:55:00,
2013-06-02 16:00:00,71.1,71.1,29.85,SSW,195,0.0,0.0,100,0.03,,-RA,0.60,VWS V14.01,2013-06-02 20:00:00,
2013-06-02 16:05:00,71.1,71.1,29.85,SSW,195,0.0,0.0,100,0.02,,-RA,0.60,VWS V14.01,2013-06-02 20:05:00,
2013-06-02 16:10:00,70.9,70.9,29.85,SSW,195,0.0,0.0,100,0.00,,-RA,0.60,VWS V14.01,2013-06-02 20:10:00,
2013-06-02 16:15:00,70.9,70.9,29.84,SSW,195,0.0,0.0,100,0.00,,-RA,0.60,VWS V14.01,2013-06-02 20:15:00,
2013-06-02 16:20:00,70.9,70.9,29.84,SSW,195,0.0,0.0,100,0.00,,-RA,0.60,VWS V14.01,2013-06-02 20:20:00,
2013-06-02 16:25:00,70.9,70.9,29.84,SSW,195,0.0,0.0,100,0.01,,-RA,0.61,VWS V14.01,2013-06-02 20:25:00,
2013-06-02 16:30:00,70.9,70.9,29.85,SSW,195,0.0,0.0,100,0.02,,-RA,0.62,VWS V14.01,2013-06-02 20:30:00,
2013-06-02 16:35:00,70.9,70.9,29.85,SSW,195,0.0,0.0,100,0.04,,-RA,0.64,VWS V14.01,2013-06-02 20:35:00,
2013-06-02 16:40:00,70.8,70.8,29.85,SSW,195,0.0,0.0,100,0.08,,-RA,0.68,VWS V14.01,2013-06-02 20:40:00,
2013-06-02 16:45:00,70.8,70.8,29.84,SSW,195,0.0,0.0,100,0.16,,-RA,0.76,VWS V14.01,2013-06-02 20:45:00,
2013-06-02 16:50:00,70.6,70.6,29.84,SSW,195,0.0,0.0,100,0.21,,-RA,0.81,VWS V14.01,2013-06-02 20:50:00,
2013-06-02 16:55:00,70.4,70.4,29.84,SSW,195,0.0,0.0,100,0.24,,-RA,0.84,VWS V14.01,2013-06-02 20:55:00,
2013-06-02 17:00:00,70.3,70.3,29.84,SSW,195,0.0,0.0,100,0.27,,-RA,0.87,VWS V14.01,2013-06-02 21:00:00,
2013-06-02 17:05:00,70.3,70.3,29.84,SSW,195,0.0,0.0,100,0.32,,-RA,0.92,VWS V14.01,2013-06-02 21:05:00,
2013-06-02 17:10:00,70.3,70.3,29.84,SSW,195,0.0,0.0,100,0.38,,-RA,0.98,VWS V14.01,2013-06-02 21:10:00,
2013-06-02 17:15:00,70.3,70.3,29.86,SSW,195,0.0,0.0,100,0.58,,-RA,1.18,VWS V14.01,2013-06-02 21:15:00,
2013-06-02 17:20:00,69.4,69.4,29.86,SSW,195,0.0,0.0,100,0.73,,-RA,1.33,VWS V14.01,2013-06-02 21:20:00,
2013-06-02 17:25:00,68.1,66.6,29.86,SSW,195,0.0,0.0,95,0.80,,-RA,1.40,VWS V14.01,2013-06-02 21:25:00,
2013-06-02 17:30:00,67.6,66.1,29.85,SSW,195,0.0,0.0,95,0.80,,-RA,1.41,VWS V14.01,2013-06-02 21:30:00,
2013-06-02 17:35:00,67.3,66.1,29.85,SSW,195,0.0,0.0,96,0.81,,-RA,1.43,VWS V14.01,2013-06-02 21:35:00,
2013-06-02 17:40:00,67.1,66.8,29.85,SSW,195,0.0,0.0,99,0.79,,-RA,1.43,VWS V14.01,2013-06-02 21:40:00,
2013-06-02 17:45:00,67.1,66.8,29.84,SSW,195,0.0,0.0,99,0.73,,RA,1.43,VWS V14.01,2013-06-02 21:45:00,
2013-06-02 17:50:00,67.3,67.3,29.84,SSW,195,0.0,0.0,100,0.67,,RA,1.43,VWS V14.01,2013-06-02 21:50:00,
2013-06-02 17:55:00,67.3,67.3,29.84,SSW,195,0.0,0.0,100,0.62,,RA,1.43,VWS V14.01,2013-06-02 21:55:00,
2013-06-02 18:00:00,67.4,67.4,29.83,SSW,195,0.0,0.0,100,0.59,,OVC110,1.43,VWS V14.01,2013-06-02 22:00:00,
2013-06-02 18:05:00,67.6,67.6,29.83,SSW,195,0.0,0.0,100,0.57,,OVC110,1.44,VWS V14.01,2013-06-02 22:05:00,
2013-06-02 18:10:00,67.6,67.6,29.83,SSW,195,0.0,0.0,100,0.51,,OVC110,1.44,VWS V14.01,2013-06-02 22:10:00,
2013-06-02 18:15:00,67.8,67.8,29.86,SSW,195,0.0,0.0,100,0.45,,OVC110,1.44,VWS V14.01,2013-06-02 22:15:00,
2013-06-02 18:20:00,67.8,67.8,29.86,SSW,195,0.0,0.0,100,0.25,,OVC110,1.44,VWS V14.01,2013-06-02 22:20:00,
2013-06-02 18:25:00,67.9,67.9,29.86,SSW,195,0.0,0.0,100,0.10,,OVC110,1.45,VWS V14.01,2013-06-02 22:25:00,
2013-06-02 18:30:00,67.8,67.8,29.86,SSW,195,0.0,0.0,100,0.07,,OVC110,1.47,VWS V14.01,2013-06-02 22:30:00,
2013-06-02 18:35:00,67.6,67.6,29.86,SSW,195,0.0,0.0,100,0.09,,OVC110,1.50,VWS V14.01,2013-06-02 22:35:00,
2013-06-02 18:40:00,67.1,67.1,29.86,SSW,195,0.0,0.0,100,0.16,,OVC110,1.59,VWS V14.01,2013-06-02 22:40:00,
2013-06-02 18:45:00,66.4,66.4,29.89,SSW,195,0.0,0.0,100,0.32,,-RA,1.75,VWS V14.01,2013-06-02 22:45:00,
2013-06-02 18:50:00,66.1,66.1,29.89,SSW,195,0.0,0.0,100,0.42,,-RA,1.85,VWS V14.01,2013-06-02 22:50:00,
2013-06-02 18:55:00,66.0,66.0,29.89,SSW,195,0.0,0.0,100,0.44,,-RA,1.87,VWS V14.01,2013-06-02 22:55:00,
2013-06-02 19:00:00,66.0,66.0,29.86,SSW,195,0.0,0.0,100,0.45,,OVC085,1.88,VWS V14.01,2013-06-02 23:00:00,
2013-06-02 19:05:00,66.0,66.0,29.86,SSW,195,0.0,0.0,100,0.45,,OVC085,1.88,VWS V14.01,2013-06-02 23:05:00,
2013-06-02 19:10:00,66.0,66.0,29.86,SSW,195,0.0,0.0,100,0.45,,OVC085,1.89,VWS V14.01,2013-06-02 23:10:00,
2013-06-02 19:15:00,66.0,66.0,29.86,SSW,195,0.0,0.0,100,0.47,,OVC085,1.91,VWS V14.01,2013-06-02 23:15:00,
2013-06-02 19:20:00,66.0,66.0,29.86,SSW,195,0.0,0.0,100,0.49,,OVC085,1.93,VWS V14.01,2013-06-02 23:20:00,
2013-06-02 19:25:00,66.0,66.0,29.86,SSW,195,0.0,0.0,100,0.50,,OVC085,1.94,VWS V14.01,2013-06-02 23:25:00,
2013-06-02 19:30:00,66.1,66.1,29.85,SSW,195,0.0,0.0,100,0.51,,OVC085,1.96,VWS V14.01,2013-06-02 23:30:00,
2013-06-02 19:35:00,66.1,66.1,29.85,SSW,195,0.0,0.0,100,0.50,,OVC085,1.98,VWS V14.01,2013-06-02 23:35:00,
2013-06-02 19:40:00,66.1,66.1,29.85,SSW,195,0.0,0.0,100,0.49,,OVC085,2.00,VWS V14.01,2013-06-02 23:40:00,
2013-06-02 19:45:00,66.1,66.1,29.84,SSW,195,0.0,0.0,100,0.40,,OVC050,2.00,VWS V14.01,2013-06-02 23:45:00,
2013-06-02 19:50:00,66.1,66.1,29.84,SSW,195,0.0,0.0,100,0.23,,OVC050,2.00,VWS V14.01,2013-06-02 23:50:00,
2013-06-02 19:55:00,66.3,66.3,29.84,SSW,195,0.0,0.0,100,0.14,,OVC050,2.00,VWS V14.01,2013-06-02 23:55:00,
2013-06-02 20:00:00,66.3,66.3,29.83,SSW,195,0.0,0.0,100,0.13,,OVC050,2.00,VWS V14.01,2013-06-03 00:00:00,
2013-06-02 20:05:00,66.4,66.4,29.83,SSW,195,0.0,0.0,100,0.12,,OVC050,2.00,VWS V14.01,2013-06-03 00:05:00,
2013-06-02 20:10:00,66.4,66.4,29.83,SSW,195,0.0,0.0,100,0.12,,OVC050,2.00,VWS V14.01,2013-06-03 00:10:00,
2013-06-02 20:15:00,66.4,66.4,29.83,SSW,195,0.0,0.0,100,0.11,,OVC110,2.00,VWS V14.01,2013-06-03 00:15:00,
2013-06-02 20:20:00,66.4,66.4,29.83,SSW,195,0.0,0.0,100,0.09,,OVC110,2.00,VWS V14.01,2013-06-03 00:20:00,
2013-06-02 20:25:00,66.4,66.4,29.83,SSW,195,0.0,0.0,100,0.07,,OVC110,2.00,VWS V14.01,2013-06-03 00:25:00,
2013-06-02 20:30:00,66.4,66.4,29.84,SSW,195,0.0,0.0,100,0.06,,OVC110,2.00,VWS V14.01,2013-06-03 00:30:00,
2013-06-02 20:35:00,66.4,66.4,29.84,SSW,195,0.0,0.0,100,0.04,,OVC110,2.00,VWS V14.01,2013-06-03 00:35:00,
2013-06-02 20:40:00,66.4,66.4,29.84,SSW,195,0.0,0.0,100,0.02,,OVC110,2.00,VWS V14.01,2013-06-03 00:40:00,
2013-06-02 20:45:00,66.3,66.3,29.85,SSW,195,0.0,0.0,100,0.00,,RA,2.00,VWS V14.01,2013-06-03 00:45:00,
2013-06-02 20:50:00,66.3,66.3,29.85,SSW,195,0.0,0.0,100,0.00,,RA,2.00,VWS V14.01,2013-06-03 00:50:00,
2013-06-02 20:55:00,66.3,66.3,29.85,SSW,195,0.0,0.0,100,0.00,,RA,2.00,VWS V14.01,2013-06-03 00:55:00,
2013-06-02 21:00:00,66.1,66.1,29.85,SSW,195,0.0,0.0,100,0.00,,RA,2.00,VWS V14.01,2013-06-03 01:00:00,
2013-06-02 21:05:00,66.1,66.1,29.85,SSW,195,0.0,0.0,100,0.00,,RA,2.00,VWS V14.01,2013-06-03 01:05:00,
2013-06-02 21:10:00,66.1,66.1,29.85,SSW,195,0.0,0.0,100,0.00,,RA,2.00,VWS V14.01,2013-06-03 01:10:00,
2013-06-02 21:15:00,66.1,66.1,29.85,SSW,195,0.0,0.0,100,0.00,,RA,2.00,VWS V14.01,2013-06-03 01:15:00,
2013-06-02 21:20:00,66.0,66.0,29.85,SSW,195,0.0,0.0,100,0.00,,RA,2.00,VWS V14.01,2013-06-03 01:20:00,
2013-06-02 21:25:00,66.0,66.0,29.85,SSW,195,0.0,0.0,100,0.00,,RA,2.00,VWS V14.01,2013-06-03 01:25:00,
2013-06-02 21:30:00,66.0,66.0,29.85,SSW,195,0.0,0.0,100,0.00,,RA,2.00,VWS V14.01,2013-06-03 01:30:00,
2013-06-02 21:35:00,66.0,66.0,29.85,SSW,195,0.0,0.0,100,0.00,,RA,2.00,VWS V14.01,2013-06-03 01:35:00,
2013-06-02 21:40:00,66.0,66.0,29.85,SSW,195,0.0,0.0,100,0.00,,RA,2.00,VWS V14.01,2013-06-03 01:40:00,
2013-06-02 21:45:00,66.0,66.0,29.85,SSW,195,0.0,0.0,100,0.00,,OVC100,2.00,VWS V14.01,2013-06-03 01:45:00,
2013-06-02 21:50:00,66.0,66.0,29.85,SSW,195,0.0,0.0,100,0.00,,OVC100,2.00,VWS V14.01,2013-06-03 01:50:00,
2013-06-02 21:55:00,65.8,65.8,29.85,SSW,195,0.0,0.0,100,0.00,,OVC100,2.00,VWS V14.01,2013-06-03 01:55:00,
2013-06-02 22:00:00,65.8,65.8,29.85,SSW,195,0.0,0.0,100,0.00,,OVC100,2.00,VWS V14.01,2013-06-03 02:00:00,
2013-06-02 22:05:00,65.6,65.6,29.85,SSW,195,0.0,0.0,100,0.00,,OVC100,2.00,VWS V14.01,2013-06-03 02:05:00,
2013-06-02 22:10:00,65.6,65.6,29.85,SSW,195,0.0,0.0,100,0.00,,OVC100,2.00,VWS V14.01,2013-06-03 02:10:00,
2013-06-02 22:15:00,65.5,65.5,29.85,SSW,195,0.0,0.0,100,0.00,,OVC100,2.00,VWS V14.01,2013-06-03 02:15:00,
2013-06-02 22:20:00,65.5,65.5,29.85,SSW,195,0.0,0.0,100,0.00,,OVC100,2.00,VWS V14.01,2013-06-03 02:20:00,
2013-06-02 22:25:00,65.5,65.5,29.85,SSW,195,0.0,0.0,100,0.00,,OVC100,2.00,VWS V14.01,2013-06-03 02:25:00,
2013-06-02 22:30:00,65.5,65.5,29.85,SSW,195,0.0,0.0,100,0.00,,OVC100,2.00,VWS V14.01,2013-06-03 02:30:00,
2013-06-02 22:35:00,65.5,65.5,29.85,SSW,195,0.0,0.0,100,0.00,,OVC100,2.00,VWS V14.01,2013-06-03 02:35:00,
2013-06-02 22:40:00,65.3,65.3,29.85,SSW,195,0.0,0.0,100,0.00,,OVC100,2.00,VWS V14.01,2013-06-03 02:40:00,
2013-06-02 22:45:00,65.3,65.3,29.84,SSW,195,0.0,0.0,100,0.00,,CLR,2.00,VWS V14.01,2013-06-03 02:45:00,
2013-06-02 22:50:00,65.3,65.3,29.84,SSW,195,0.0,0.0,100,0.00,,CLR,2.00,VWS V14.01,2013-06-03 02:50:00,
2013-06-02 22:55:00,65.5,65.5,29.84,SSW,195,0.0,0.0,100,0.00,,CLR,2.00,VWS V14.01,2013-06-03 02:55:00,
2013-06-02 23:00:00,65.5,65.5,29.85,SSW,195,0.0,0.0,100,0.00,,CLR,2.00,VWS V14.01,2013-06-03 03:00:00,
2013-06-02 23:05:00,65.5,65.5,29.85,SSW,195,0.0,0.0,100,0.00,,CLR,2.00,VWS V14.01,2013-06-03 03:05:00,
2013-06-02 23:10:00,65.3,65.3,29.85,SSW,195,0.0,0.0,100,0.00,,CLR,2.00,VWS V14.01,2013-06-03 03:10:00,
2013-06-02 23:15:00,65.3,65.3,29.84,SSW,195,0.0,0.0,100,0.00,,CLR,2.00,VWS V14.01,2013-06-03 03:15:00,
2013-06-02 23:20:00,65.5,65.5,29.84,SSW,195,0.0,0.0,100,0.00,,CLR,2.00,VWS V14.01,2013-06-03 03:20:00,
2013-06-02 23:25:00,65.5,65.5,29.84,SSW,195,0.0,0.0,100,0.00,,CLR,2.00,VWS V14.01,2013-06-03 03:25:00,
2013-06-02 23:30:00,65.5,65.5,29.84,SSW,195,0.0,0.0,100,0.00,,CLR,2.00,VWS V14.01,2013-06-03 03:30:00,
2013-06-02 23:35:00,65.5,65.5,29.84,SSW,195,0.0,0.0,100,0.00,,CLR,2.00,VWS V14.01,2013-06-03 03:35:00,
2013-06-02 23:40:00,65.5,65.5,29.84,SSW,195,0.0,0.0,100,0.00,,CLR,2.00,VWS V14.01,2013-06-03 03:40:00,
2013-06-02 23:45:00,65.5,65.5,29.84,SSW,195,0.0,0.0,100,0.00,,FEW120,2.00,VWS V14.01,2013-06-03 03:45:00,
2013-06-02 23:50:00,65.5,65.5,29.84,SSW,195,0.0,0.0,100,0.00,,FEW120,2.00,VWS V14.01,2013-06-03 03:50:00,
2013-06-02 23:55:00,65.3,65.3,29.84,SSW,195,0.0,0.0,100,0.00,,FEW120,2.00,VWS V14.01,2013-06-03 03:55:00,